SBI2051 UUDD-URSS

Flight info

Callsign SBI2051
Flight time 3h 17m
Altitude 37000
Route LINRU4Q LINRU L4 EKTUT N72 UMSIS N166 ADNET W79 BINOL BINOL1K
Aircraft A320/M-SDE3FGHIRWY/LB1

Departure

Time 2026-05-07 16:21
Airport Domodedovo International Airport (UUDD)

Arrival

Time 2026-05-07 19:38
Airport Sochi International Airport (URSS)
Time Latitude Longitude Altitude Speed Heading
2026-05-07 15:21 55.41073 37.89898 570 ft 0 kts 56°
2026-05-07 16:10 55.41063 37.89870 576 ft 4 kts 68°
2026-05-07 16:10 55.41059 37.89828 576 ft 4 kts 114°
2026-05-07 16:10 55.41068 37.89807 576 ft 1 kts 145°
2026-05-07 16:10 55.41070 37.89804 575 ft 1 kts 145°
2026-05-07 16:14 55.41065 37.89811 572 ft 2 kts 145°
2026-05-07 16:14 55.41018 37.89868 572 ft 10 kts 148°
2026-05-07 16:14 55.40974 37.89816 573 ft 7 kts 234°
2026-05-07 16:14 55.40949 37.89755 573 ft 5 kts 235°
2026-05-07 16:15 55.40922 37.89685 573 ft 11 kts 235°
2026-05-07 16:15 55.40867 37.89553 570 ft 14 kts 226°
2026-05-07 16:15 55.40805 37.89425 570 ft 13 kts 234°
2026-05-07 16:15 55.40753 37.89295 572 ft 13 kts 234°
2026-05-07 16:16 55.40704 37.89272 576 ft 11 kts 164°
2026-05-07 16:16 55.40638 37.89345 574 ft 11 kts 146°
2026-05-07 16:16 55.40574 37.89421 566 ft 11 kts 146°
2026-05-07 16:16 55.40511 37.89497 568 ft 11 kts 145°
2026-05-07 16:17 55.40450 37.89571 570 ft 11 kts 145°
2026-05-07 16:17 55.40390 37.89643 568 ft 10 kts 145°
2026-05-07 16:17 55.40330 37.89715 560 ft 10 kts 145°
2026-05-07 16:17 55.40273 37.89784 559 ft 10 kts 146°
2026-05-07 16:18 55.40217 37.89851 558 ft 10 kts 146°
2026-05-07 16:18 55.40163 37.89916 556 ft 9 kts 146°
2026-05-07 16:18 55.40110 37.89979 555 ft 9 kts 146°
2026-05-07 16:18 55.40060 37.89959 559 ft 7 kts 231°
2026-05-07 16:19 55.40058 37.89888 563 ft 4 kts 287°
2026-05-07 16:19 55.40069 37.89845 557 ft 7 kts 294°
2026-05-07 16:19 55.40093 37.89721 559 ft 12 kts 265°
2026-05-07 16:19 55.40111 37.89617 562 ft 8 kts 323°
2026-05-07 16:20 55.40118 37.89609 565 ft 0 kts 324°
2026-05-07 16:20 55.40174 37.89540 564 ft 40 kts 325°
2026-05-07 16:20 55.40602 37.89026 571 ft 106 kts 325°
2026-05-07 16:20 55.41364 37.88110 592 ft 156 kts 325°
2026-05-07 16:21 55.42246 37.87039 1168 ft 153 kts 318°
2026-05-07 16:21 55.42972 37.85703 1835 ft 150 kts 309°
2026-05-07 16:21 55.43699 37.84212 2101 ft 173 kts 308°
2026-05-07 16:21 55.44519 37.82485 2382 ft 194 kts 307°
2026-05-07 16:22 55.45413 37.80580 2814 ft 206 kts 307°
2026-05-07 16:22 55.46266 37.78606 3605 ft 201 kts 292°
2026-05-07 16:22 55.46418 37.76144 4048 ft 214 kts 254°
2026-05-07 16:22 55.45656 37.73763 4522 ft 232 kts 236°
2026-05-07 16:23 55.44653 37.71485 5254 ft 237 kts 233°
2026-05-07 16:23 55.43624 37.69223 5822 ft 241 kts 232°
2026-05-07 16:23 55.42304 37.67426 5975 ft 245 kts 201°
2026-05-07 16:23 55.40556 37.67388 6074 ft 267 kts 166°
2026-05-07 16:24 55.38841 37.68827 6624 ft 283 kts 152°
2026-05-07 16:24 55.37184 37.70814 6930 ft 289 kts 147°
2026-05-07 16:24 55.35586 37.72964 6999 ft 288 kts 146°
2026-05-07 16:24 55.34013 37.75103 7002 ft 287 kts 147°
2026-05-07 16:25 55.32412 37.77220 7239 ft 291 kts 148°
2026-05-07 16:25 55.30802 37.79371 8153 ft 289 kts 147°
2026-05-07 16:25 55.29212 37.81552 9001 ft 291 kts 147°
2026-05-07 16:25 55.27620 37.83758 9800 ft 293 kts 147°
2026-05-07 16:26 55.26006 37.85993 10358 ft 303 kts 147°
2026-05-07 16:26 55.24282 37.88357 10533 ft 326 kts 147°
2026-05-07 16:26 55.22436 37.90877 10831 ft 343 kts 147°
2026-05-07 16:26 55.20539 37.93474 11406 ft 349 kts 146°
2026-05-07 16:27 55.18619 37.96107 12071 ft 353 kts 146°
2026-05-07 16:27 55.16676 37.98774 12756 ft 356 kts 146°
2026-05-07 16:27 55.14708 38.01471 13430 ft 360 kts 146°
2026-05-07 16:27 55.12727 38.04181 14044 ft 363 kts 146°
2026-05-07 16:28 55.10726 38.06912 14613 ft 367 kts 146°
2026-05-07 16:28 55.08707 38.09662 15185 ft 371 kts 146°
2026-05-07 16:28 55.06662 38.12442 15742 ft 375 kts 146°
2026-05-07 16:28 55.04592 38.15250 16302 ft 378 kts 146°
2026-05-07 16:29 55.02504 38.18080 16864 ft 382 kts 146°
2026-05-07 16:29 55.00391 38.20936 17415 ft 386 kts 146°
2026-05-07 16:29 54.98274 38.23789 17913 ft 390 kts 145°
2026-05-07 16:29 54.96122 38.26689 18415 ft 394 kts 145°
2026-05-07 16:30 54.93943 38.29627 18884 ft 397 kts 145°
2026-05-07 16:30 54.91754 38.32573 19380 ft 400 kts 145°
2026-05-07 16:30 54.89534 38.35554 19881 ft 403 kts 145°
2026-05-07 16:30 54.87308 38.38538 20381 ft 406 kts 145°
2026-05-07 16:31 54.85096 38.41498 20868 ft 408 kts 145°
2026-05-07 16:31 54.82837 38.44516 21358 ft 411 kts 145°
2026-05-07 16:31 54.80562 38.47552 21852 ft 414 kts 145°
2026-05-07 16:31 54.78271 38.50603 22317 ft 417 kts 145°
2026-05-07 16:32 54.75964 38.53672 22757 ft 419 kts 145°
2026-05-07 16:32 54.73642 38.56764 23203 ft 422 kts 144°
2026-05-07 16:32 54.71308 38.59871 23606 ft 424 kts 144°
2026-05-07 16:32 54.68960 38.62991 23971 ft 427 kts 144°
2026-05-07 16:33 54.66590 38.66134 24319 ft 429 kts 144°
2026-05-07 16:33 54.64206 38.69284 24663 ft 432 kts 144°
2026-05-07 16:33 54.61835 38.72408 24992 ft 434 kts 144°
2026-05-07 16:33 54.59427 38.75576 25319 ft 436 kts 144°
2026-05-07 16:34 54.57009 38.78755 25643 ft 439 kts 144°
2026-05-07 16:34 54.54573 38.81955 25963 ft 441 kts 144°
2026-05-07 16:34 54.52126 38.85165 26276 ft 443 kts 143°
2026-05-07 16:34 54.49675 38.88375 26610 ft 445 kts 143°
2026-05-07 16:35 54.47203 38.91605 26935 ft 447 kts 143°
2026-05-07 16:35 54.44724 38.94838 27238 ft 449 kts 143°
2026-05-07 16:35 54.42250 38.98136 27529 ft 451 kts 140°
2026-05-07 16:35 54.40019 39.01969 27819 ft 454 kts 130°
2026-05-07 16:36 54.38173 39.06365 28089 ft 456 kts 120°
2026-05-07 16:36 54.36745 39.11247 28371 ft 457 kts 111°
2026-05-07 16:36 54.35558 39.16260 28644 ft 459 kts 111°
2026-05-07 16:36 54.34345 39.21331 28915 ft 461 kts 112°
2026-05-07 16:37 54.33118 39.26407 29203 ft 462 kts 112°
2026-05-07 16:37 54.31879 39.31498 29466 ft 463 kts 112°
2026-05-07 16:37 54.30637 39.36592 29715 ft 465 kts 112°
2026-05-07 16:37 54.29384 39.41731 29950 ft 466 kts 112°
2026-05-07 16:38 54.28135 39.46857 30154 ft 468 kts 112°
2026-05-07 16:38 54.26883 39.51997 30344 ft 469 kts 112°
2026-05-07 16:38 54.25623 39.57154 30575 ft 469 kts 112°
2026-05-07 16:38 54.24364 39.62296 30854 ft 468 kts 112°
2026-05-07 16:39 54.23107 39.67423 31120 ft 467 kts 112°
2026-05-07 16:39 54.21846 39.72541 31380 ft 467 kts 112°
2026-05-07 16:39 54.20586 39.77645 31642 ft 466 kts 112°
2026-05-07 16:39 54.19340 39.82673 31902 ft 466 kts 112°
2026-05-07 16:40 54.18075 39.87778 32166 ft 465 kts 112°
2026-05-07 16:40 54.16802 39.92883 32434 ft 465 kts 113°
2026-05-07 16:40 54.15537 39.97946 32697 ft 464 kts 113°
2026-05-07 16:40 54.14265 40.03008 32942 ft 463 kts 113°
2026-05-07 16:41 54.12997 40.08050 33219 ft 463 kts 113°
2026-05-07 16:41 54.11767 40.13131 33467 ft 463 kts 109°
2026-05-07 16:41 54.10824 40.18371 33714 ft 462 kts 105°
2026-05-07 16:41 54.09926 40.23614 33980 ft 461 kts 105°
2026-05-07 16:42 54.09040 40.28788 34203 ft 460 kts 105°
2026-05-07 16:42 54.08139 40.34019 34410 ft 460 kts 106°
2026-05-07 16:42 54.07233 40.39231 34614 ft 460 kts 106°
2026-05-07 16:42 54.06319 40.44448 34803 ft 460 kts 106°
2026-05-07 16:43 54.05401 40.49661 34986 ft 460 kts 106°
2026-05-07 16:43 54.04476 40.54889 35167 ft 460 kts 107°
2026-05-07 16:43 54.03551 40.60088 35340 ft 460 kts 107°
2026-05-07 16:43 54.02624 40.65314 35512 ft 460 kts 107°
2026-05-07 16:44 54.01703 40.70518 35675 ft 460 kts 107°
2026-05-07 16:44 54.00780 40.75730 35854 ft 459 kts 107°
2026-05-07 16:44 53.99869 40.80860 36025 ft 459 kts 107°
2026-05-07 16:44 53.98937 40.86066 36179 ft 459 kts 107°
2026-05-07 16:45 53.98008 40.91245 36337 ft 458 kts 107°
2026-05-07 16:45 53.97076 40.96429 36481 ft 458 kts 107°
2026-05-07 16:45 53.96140 41.01598 36626 ft 458 kts 107°
2026-05-07 16:45 53.95210 41.06786 36770 ft 458 kts 107°
2026-05-07 16:46 53.94331 41.11978 36902 ft 458 kts 105°
2026-05-07 16:46 53.92653 41.22428 36930 ft 458 kts 105°
2026-05-07 16:47 53.90988 41.32800 36928 ft 457 kts 105°
2026-05-07 16:47 53.89273 41.43170 36931 ft 457 kts 106°
2026-05-07 16:48 53.87534 41.53547 36930 ft 457 kts 106°
2026-05-07 16:48 53.85791 41.63839 36930 ft 457 kts 106°
2026-05-07 16:49 53.84029 41.74195 36934 ft 457 kts 106°
2026-05-07 16:49 53.82268 41.84561 36937 ft 457 kts 106°
2026-05-07 16:50 53.80509 41.94844 36940 ft 457 kts 106°
2026-05-07 16:50 53.78730 42.05150 36938 ft 456 kts 107°
2026-05-07 16:51 53.76939 42.15441 36943 ft 456 kts 107°
2026-05-07 16:51 53.75144 42.25733 36943 ft 456 kts 107°
2026-05-07 16:52 53.73332 42.36037 36946 ft 456 kts 107°
2026-05-07 16:52 53.71528 42.46245 36949 ft 456 kts 107°
2026-05-07 16:53 53.69651 42.56491 36944 ft 456 kts 112°
2026-05-07 16:53 53.68251 42.61283 36943 ft 454 kts 123°
2026-05-07 16:53 53.66381 42.65555 36940 ft 453 kts 133°
2026-05-07 16:53 53.64099 42.69195 36935 ft 451 kts 144°
2026-05-07 16:54 53.61470 42.72081 36936 ft 449 kts 154°
2026-05-07 16:54 53.55789 42.76292 36929 ft 448 kts 158°
2026-05-07 16:55 53.50046 42.80429 36924 ft 449 kts 158°
2026-05-07 16:55 53.44292 42.84565 36928 ft 450 kts 158°
2026-05-07 16:56 53.38529 42.88688 36936 ft 450 kts 158°
2026-05-07 16:56 53.29917 42.94843 36940 ft 451 kts 158°
2026-05-07 16:57 53.24134 42.98972 36944 ft 451 kts 158°
2026-05-07 16:57 53.18349 43.03084 36943 ft 451 kts 158°
2026-05-07 16:58 53.12601 43.07144 36943 ft 451 kts 158°
2026-05-07 16:58 53.06854 43.11361 36940 ft 451 kts 156°
2026-05-07 16:59 53.01131 43.15691 36946 ft 451 kts 156°
2026-05-07 16:59 52.95441 43.19959 36946 ft 451 kts 156°
2026-05-07 17:00 52.89704 43.24184 36950 ft 451 kts 157°
2026-05-07 17:00 52.83955 43.28391 36953 ft 452 kts 157°
2026-05-07 17:01 52.78196 43.32607 36961 ft 452 kts 156°
2026-05-07 17:01 52.72437 43.36828 36967 ft 452 kts 156°
2026-05-07 17:02 52.66720 43.41021 36961 ft 452 kts 156°
2026-05-07 17:02 52.60964 43.45209 36966 ft 452 kts 157°
2026-05-07 17:03 52.56172 43.48683 36970 ft 452 kts 157°
2026-05-07 17:03 52.50401 43.52860 36975 ft 453 kts 157°
2026-05-07 17:04 52.44622 43.57027 36974 ft 453 kts 157°
2026-05-07 17:04 52.38851 43.61174 36975 ft 453 kts 157°
2026-05-07 17:05 52.33110 43.65290 36973 ft 453 kts 157°
2026-05-07 17:05 52.27344 43.69428 36975 ft 452 kts 157°
2026-05-07 17:06 52.21574 43.73552 36969 ft 452 kts 157°
2026-05-07 17:06 52.15806 43.77658 36975 ft 452 kts 157°
2026-05-07 17:07 52.10033 43.81749 36981 ft 452 kts 157°
2026-05-07 17:07 52.04246 43.85843 36980 ft 453 kts 157°
2026-05-07 17:08 51.98489 43.89902 36981 ft 453 kts 157°
2026-05-07 17:08 51.92692 43.93980 36982 ft 453 kts 157°
2026-05-07 17:09 51.86903 43.98043 36988 ft 453 kts 157°
2026-05-07 17:09 51.81113 44.02103 36986 ft 453 kts 157°
2026-05-07 17:10 51.75323 44.06144 36983 ft 453 kts 157°
2026-05-07 17:10 51.69532 44.10166 36983 ft 453 kts 157°
2026-05-07 17:11 51.63733 44.14183 36982 ft 453 kts 157°
2026-05-07 17:11 51.57972 44.18155 36984 ft 453 kts 157°
2026-05-07 17:12 51.52179 44.22163 36985 ft 454 kts 157°
2026-05-07 17:12 51.46370 44.26178 36985 ft 454 kts 157°
2026-05-07 17:13 51.40556 44.30166 36989 ft 454 kts 157°
2026-05-07 17:13 51.34743 44.34137 36991 ft 454 kts 157°
2026-05-07 17:14 51.28923 44.38096 36990 ft 454 kts 157°
2026-05-07 17:14 51.23095 44.42054 36985 ft 454 kts 157°
2026-05-07 17:15 51.17227 44.45608 36983 ft 454 kts 167°
2026-05-07 17:15 51.10964 44.46457 36982 ft 452 kts 184°
2026-05-07 17:16 51.04669 44.45828 36983 ft 453 kts 184°
2026-05-07 17:16 50.98375 44.45241 36979 ft 453 kts 184°
2026-05-07 17:17 50.92064 44.44667 36976 ft 454 kts 183°
2026-05-07 17:17 50.85792 44.44102 36975 ft 454 kts 184°
2026-05-07 17:18 50.79485 44.43508 36974 ft 454 kts 184°
2026-05-07 17:18 50.73159 44.42919 36974 ft 454 kts 183°
2026-05-07 17:19 50.66887 44.42352 36974 ft 454 kts 183°
2026-05-07 17:19 50.60570 44.41757 36968 ft 454 kts 184°
2026-05-07 17:20 50.54251 44.41161 36968 ft 455 kts 183°
2026-05-07 17:20 50.47929 44.40587 36969 ft 455 kts 183°
2026-05-07 17:21 50.41604 44.40016 36969 ft 455 kts 183°
2026-05-07 17:21 50.35270 44.39451 36971 ft 455 kts 183°
2026-05-07 17:22 50.28977 44.38883 36971 ft 455 kts 183°
2026-05-07 17:22 50.22641 44.38300 36966 ft 456 kts 184°
2026-05-07 17:23 50.16298 44.37706 36965 ft 457 kts 184°
2026-05-07 17:23 50.09948 44.37130 36970 ft 457 kts 183°
2026-05-07 17:24 50.03601 44.36570 36972 ft 457 kts 183°
2026-05-07 17:24 50.00426 44.36290 36845 ft 457 kts 183°
2026-05-07 17:24 49.97263 44.36008 36581 ft 456 kts 183°
2026-05-07 17:25 49.94088 44.35722 36326 ft 456 kts 183°
2026-05-07 17:25 49.90919 44.35438 36076 ft 456 kts 183°
2026-05-07 17:25 49.87748 44.35158 35925 ft 456 kts 183°
2026-05-07 17:25 49.84568 44.34879 35977 ft 457 kts 183°
2026-05-07 17:26 49.78215 44.34313 35969 ft 457 kts 183°
2026-05-07 17:26 49.71865 44.33749 35972 ft 457 kts 183°
2026-05-07 17:27 49.65548 44.33187 35969 ft 457 kts 183°
2026-05-07 17:27 49.59190 44.32822 35967 ft 457 kts 175°
2026-05-07 17:28 49.53015 44.34846 35957 ft 455 kts 158°
2026-05-07 17:28 49.47166 44.38584 35959 ft 455 kts 156°
2026-05-07 17:29 49.41320 44.42306 35965 ft 455 kts 156°
2026-05-07 17:29 49.35457 44.46024 35969 ft 455 kts 157°
2026-05-07 17:30 49.29643 44.49691 35975 ft 455 kts 157°
2026-05-07 17:30 49.23778 44.53382 35971 ft 455 kts 157°
2026-05-07 17:31 49.17922 44.57061 35971 ft 455 kts 157°
2026-05-07 17:31 49.12067 44.60739 35978 ft 454 kts 157°
2026-05-07 17:32 49.06246 44.64383 35980 ft 454 kts 157°
2026-05-07 17:32 49.01374 44.67429 35973 ft 454 kts 157°
2026-05-07 17:33 48.94535 44.71681 35983 ft 454 kts 157°
2026-05-07 17:33 48.88681 44.75314 35983 ft 454 kts 157°
2026-05-07 17:34 48.82980 44.79413 35979 ft 453 kts 146°
2026-05-07 17:34 48.78015 44.85163 35973 ft 452 kts 141°
2026-05-07 17:35 48.73069 44.91042 35972 ft 452 kts 141°
2026-05-07 17:35 48.68091 44.96908 35975 ft 452 kts 141°
2026-05-07 17:36 48.63111 45.02761 35974 ft 452 kts 141°
2026-05-07 17:36 48.58146 45.08607 35973 ft 452 kts 141°
2026-05-07 17:37 48.53217 45.14411 35971 ft 452 kts 141°
2026-05-07 17:37 48.48251 45.20235 35973 ft 452 kts 142°
2026-05-07 17:38 48.43259 45.26045 35973 ft 452 kts 142°
2026-05-07 17:38 48.38012 45.31222 35967 ft 452 kts 154°
2026-05-07 17:39 48.32350 45.35358 35963 ft 452 kts 154°
2026-05-07 17:39 48.26695 45.39503 35956 ft 452 kts 153°
2026-05-07 17:40 48.21028 45.43661 35959 ft 452 kts 153°
2026-05-07 17:40 48.15398 45.47787 35958 ft 452 kts 153°
2026-05-07 17:41 48.09739 45.51918 35960 ft 452 kts 153°
2026-05-07 17:41 48.04074 45.56040 35959 ft 453 kts 153°
2026-05-07 17:42 47.98401 45.60147 35959 ft 453 kts 154°
2026-05-07 17:42 47.92728 45.64248 35957 ft 453 kts 154°
2026-05-07 17:43 47.87050 45.68353 35958 ft 454 kts 153°
2026-05-07 17:43 47.81357 45.72449 35960 ft 454 kts 154°
2026-05-07 17:44 47.75667 45.76533 35961 ft 454 kts 154°
2026-05-07 17:44 47.70005 45.80592 35968 ft 454 kts 153°
2026-05-07 17:45 47.64306 45.84671 35980 ft 454 kts 154°
2026-05-07 17:45 47.58601 45.88730 35978 ft 455 kts 154°
2026-05-07 17:46 47.52893 45.92795 35978 ft 454 kts 154°
2026-05-07 17:46 47.47186 45.96835 35979 ft 454 kts 154°
2026-05-07 17:47 47.41523 46.00839 35981 ft 454 kts 154°
2026-05-07 17:47 47.35825 46.04883 35974 ft 454 kts 153°
2026-05-07 17:48 47.30126 46.08925 35976 ft 454 kts 154°
2026-05-07 17:48 47.24410 46.12949 35984 ft 454 kts 154°
2026-05-07 17:49 47.18708 46.16951 35979 ft 454 kts 154°
2026-05-07 17:49 47.13050 46.20923 35978 ft 454 kts 154°
2026-05-07 17:50 47.07446 46.25191 35983 ft 453 kts 144°
2026-05-07 17:50 47.03539 46.30268 35977 ft 450 kts 129°
2026-05-07 17:51 47.00024 46.37837 35979 ft 449 kts 122°
2026-05-07 17:51 46.96668 46.45543 35979 ft 449 kts 122°
2026-05-07 17:52 46.93293 46.53245 35976 ft 449 kts 122°
2026-05-07 17:52 46.89920 46.60935 35976 ft 449 kts 122°
2026-05-07 17:53 46.86553 46.68619 35975 ft 448 kts 121°
2026-05-07 17:53 46.83187 46.76284 35965 ft 448 kts 122°
2026-05-07 17:54 46.79831 46.83886 35963 ft 448 kts 122°
2026-05-07 17:54 46.76455 46.91521 35961 ft 448 kts 122°
2026-05-07 17:55 46.73070 46.99152 35954 ft 447 kts 122°
2026-05-07 17:55 46.69684 47.06762 35952 ft 447 kts 122°
2026-05-07 17:56 46.66332 47.14396 35948 ft 447 kts 122°
2026-05-07 17:56 46.63014 47.22064 35942 ft 447 kts 121°
2026-05-07 17:57 46.60247 47.28428 35942 ft 447 kts 122°
2026-05-07 17:57 46.56365 47.37303 35938 ft 447 kts 122°
2026-05-07 17:58 46.53007 47.44930 35937 ft 447 kts 122°
2026-05-07 17:58 46.49646 47.52544 35937 ft 447 kts 122°
2026-05-07 17:59 46.46288 47.60142 35932 ft 448 kts 122°
2026-05-07 17:59 46.42917 47.67746 35931 ft 448 kts 122°
2026-05-07 18:00 46.39546 47.75334 35925 ft 448 kts 122°
2026-05-07 18:00 46.36185 47.82877 35953 ft 448 kts 123°
2026-05-07 18:01 46.32795 47.90457 35957 ft 448 kts 124°
2026-05-07 18:01 46.30870 47.93975 35952 ft 447 kts 135°
2026-05-07 18:01 46.28499 47.96882 35956 ft 447 kts 146°
2026-05-07 18:02 46.22824 48.00394 35947 ft 446 kts 169°
2026-05-07 18:02 46.19737 48.00892 35944 ft 446 kts 180°
2026-05-07 18:03 46.13528 48.00863 35938 ft 446 kts 180°
2026-05-07 18:03 46.07304 48.00839 35934 ft 447 kts 180°
2026-05-07 18:04 46.01108 48.00824 35938 ft 448 kts 180°
2026-05-07 18:04 45.94860 48.00804 35937 ft 448 kts 180°
2026-05-07 18:05 45.88612 48.00786 35946 ft 448 kts 180°
2026-05-07 18:05 45.82366 48.00767 35955 ft 448 kts 180°
2026-05-07 18:06 45.76175 48.00743 35970 ft 448 kts 180°
2026-05-07 18:06 45.69924 48.00716 35973 ft 448 kts 181°
2026-05-07 18:07 45.63699 48.00709 35982 ft 447 kts 180°
2026-05-07 18:07 45.57467 48.00697 35983 ft 447 kts 180°
2026-05-07 18:08 45.51236 48.00670 35987 ft 448 kts 180°
2026-05-07 18:08 45.45000 48.00637 35989 ft 448 kts 180°
2026-05-07 18:09 45.38800 48.00615 36002 ft 448 kts 180°
2026-05-07 18:09 45.32568 48.00602 36007 ft 448 kts 180°
2026-05-07 18:10 45.26326 48.00601 36008 ft 448 kts 181°
2026-05-07 18:10 45.20090 48.00577 36020 ft 447 kts 181°
2026-05-07 18:11 45.13869 48.00546 36025 ft 447 kts 181°
2026-05-07 18:11 45.07692 48.00524 36033 ft 446 kts 181°
2026-05-07 18:12 45.01493 48.00499 36038 ft 445 kts 181°
2026-05-07 18:12 44.95314 48.00487 36040 ft 443 kts 181°
2026-05-07 18:13 44.89156 48.00469 36041 ft 442 kts 181°
2026-05-07 18:13 44.83019 48.00447 36038 ft 441 kts 181°
2026-05-07 18:14 44.76873 48.00423 36038 ft 441 kts 181°
2026-05-07 18:14 44.70733 48.00405 36049 ft 441 kts 182°
2026-05-07 18:15 44.64600 48.00390 36046 ft 441 kts 181°
2026-05-07 18:15 44.58455 48.00372 36042 ft 441 kts 181°
2026-05-07 18:16 44.52402 47.99363 36054 ft 437 kts 198°
2026-05-07 18:16 44.46729 47.96342 36057 ft 436 kts 202°
2026-05-07 18:17 44.41082 47.93197 36063 ft 436 kts 202°
2026-05-07 18:17 44.35472 47.90089 36070 ft 436 kts 202°
2026-05-07 18:18 44.29813 47.86979 36057 ft 437 kts 202°
2026-05-07 18:18 44.24162 47.83868 36071 ft 436 kts 202°
2026-05-07 18:19 44.18510 47.80771 36079 ft 436 kts 202°
2026-05-07 18:19 44.12862 47.77684 36078 ft 436 kts 202°
2026-05-07 18:20 44.07220 47.74594 36085 ft 436 kts 202°
2026-05-07 18:20 44.01574 47.71504 36090 ft 435 kts 202°
2026-05-07 18:21 43.95966 47.68447 36077 ft 435 kts 202°
2026-05-07 18:21 43.90333 47.65386 36095 ft 434 kts 202°
2026-05-07 18:22 43.84697 47.62328 36096 ft 433 kts 202°
2026-05-07 18:22 43.79082 47.59290 36095 ft 433 kts 202°
2026-05-07 18:23 43.73471 47.56264 36095 ft 433 kts 202°
2026-05-07 18:23 43.67936 47.53126 36097 ft 431 kts 210°
2026-05-07 18:23 43.65471 47.50776 36095 ft 429 kts 222°
2026-05-07 18:24 43.63454 47.47737 36094 ft 429 kts 234°
2026-05-07 18:24 43.61968 47.44173 36096 ft 429 kts 246°
2026-05-07 18:24 43.61071 47.40240 36093 ft 431 kts 258°
2026-05-07 18:25 43.60356 47.32001 36084 ft 433 kts 262°
2026-05-07 18:25 43.59665 47.23737 36090 ft 434 kts 262°
2026-05-07 18:26 43.58957 47.15460 36095 ft 434 kts 262°
2026-05-07 18:26 43.58256 47.07239 36105 ft 434 kts 262°
2026-05-07 18:27 43.57552 46.98968 36106 ft 434 kts 261°
2026-05-07 18:27 43.56841 46.90692 36113 ft 434 kts 261°
2026-05-07 18:28 43.56117 46.82425 36116 ft 434 kts 261°
2026-05-07 18:28 43.55384 46.74154 36120 ft 435 kts 262°
2026-05-07 18:29 43.54653 46.65856 36109 ft 436 kts 262°
2026-05-07 18:29 43.53922 46.57600 36111 ft 437 kts 262°
2026-05-07 18:30 43.53172 46.49287 36115 ft 437 kts 261°
2026-05-07 18:30 43.52407 46.40976 36123 ft 437 kts 261°
2026-05-07 18:31 43.51633 46.32633 36129 ft 438 kts 261°
2026-05-07 18:31 43.50868 46.24311 36137 ft 438 kts 261°
2026-05-07 18:32 43.50108 46.16031 36135 ft 438 kts 261°
2026-05-07 18:32 43.49329 46.07705 36131 ft 439 kts 261°
2026-05-07 18:33 43.49368 45.99298 36127 ft 441 kts 275°
2026-05-07 18:33 43.50091 45.90896 36132 ft 442 kts 275°
2026-05-07 18:34 43.50788 45.82472 36137 ft 443 kts 275°
2026-05-07 18:34 43.51470 45.74033 36136 ft 444 kts 275°
2026-05-07 18:35 43.52041 45.67003 36144 ft 444 kts 275°
2026-05-07 18:35 43.52721 45.58529 36135 ft 445 kts 275°
2026-05-07 18:36 43.53398 45.50024 36133 ft 446 kts 275°
2026-05-07 18:36 43.54066 45.41519 36134 ft 446 kts 275°
2026-05-07 18:37 43.54739 45.33008 36144 ft 447 kts 275°
2026-05-07 18:37 43.55398 45.24483 36147 ft 447 kts 275°
2026-05-07 18:38 43.56053 45.15948 36154 ft 447 kts 275°
2026-05-07 18:38 43.56699 45.07453 36151 ft 448 kts 275°
2026-05-07 18:39 43.57347 44.98878 36150 ft 448 kts 275°
2026-05-07 18:39 43.57983 44.90320 36155 ft 449 kts 275°
2026-05-07 18:40 43.58610 44.81757 36157 ft 449 kts 275°
2026-05-07 18:40 43.59232 44.73230 36154 ft 449 kts 275°
2026-05-07 18:41 43.59859 44.64616 36143 ft 450 kts 275°
2026-05-07 18:41 43.60471 44.56070 36142 ft 451 kts 275°
2026-05-07 18:42 43.61076 44.47460 36132 ft 451 kts 275°
2026-05-07 18:42 43.61672 44.38833 36133 ft 452 kts 275°
2026-05-07 18:43 43.62271 44.30178 36124 ft 452 kts 275°
2026-05-07 18:43 43.62866 44.21533 36113 ft 453 kts 275°
2026-05-07 18:44 43.63443 44.12844 36114 ft 454 kts 275°
2026-05-07 18:44 43.63809 44.04133 36116 ft 455 kts 272°
2026-05-07 18:45 43.64000 43.95455 36106 ft 455 kts 271°
2026-05-07 18:45 43.64191 43.86713 36110 ft 455 kts 272°
2026-05-07 18:46 43.64426 43.77971 36111 ft 456 kts 272°
2026-05-07 18:46 43.64670 43.69223 36112 ft 455 kts 272°
2026-05-07 18:47 43.64912 43.60473 36113 ft 456 kts 272°
2026-05-07 18:47 43.65132 43.51760 36138 ft 456 kts 272°
2026-05-07 18:48 43.65338 43.43012 36131 ft 456 kts 272°
2026-05-07 18:48 43.65541 43.34259 36139 ft 456 kts 272°
2026-05-07 18:49 43.65736 43.25489 36158 ft 457 kts 272°
2026-05-07 18:49 43.65936 43.16723 36170 ft 457 kts 272°
2026-05-07 18:50 43.66130 43.07940 36191 ft 457 kts 272°
2026-05-07 18:50 43.66311 42.99167 36200 ft 457 kts 272°
2026-05-07 18:51 43.66477 42.90435 36197 ft 457 kts 272°
2026-05-07 18:51 43.66655 42.81642 36206 ft 457 kts 272°
2026-05-07 18:52 43.66827 42.72854 36210 ft 458 kts 272°
2026-05-07 18:52 43.66983 42.64117 36210 ft 458 kts 272°
2026-05-07 18:53 43.67133 42.55325 36221 ft 458 kts 272°
2026-05-07 18:53 43.67273 42.46529 36222 ft 458 kts 272°
2026-05-07 18:54 43.67411 42.37718 36225 ft 458 kts 272°
2026-05-07 18:54 43.67543 42.28907 36221 ft 458 kts 272°
2026-05-07 18:55 43.67667 42.20105 36223 ft 459 kts 272°
2026-05-07 18:55 43.67782 42.11287 36227 ft 459 kts 272°
2026-05-07 18:56 43.67885 42.02532 36234 ft 459 kts 272°
2026-05-07 18:56 43.67980 41.93690 36233 ft 459 kts 272°
2026-05-07 18:57 43.68072 41.84868 36244 ft 459 kts 272°
2026-05-07 18:57 43.68162 41.76043 36244 ft 459 kts 272°
2026-05-07 18:58 43.68253 41.67272 36244 ft 459 kts 272°
2026-05-07 18:58 43.68327 41.58456 36244 ft 459 kts 272°
2026-05-07 18:59 43.68391 41.49622 36243 ft 459 kts 272°
2026-05-07 18:59 43.68449 41.40780 35983 ft 460 kts 272°
2026-05-07 18:59 43.68478 41.36367 35739 ft 460 kts 272°
2026-05-07 19:00 43.68507 41.31938 35494 ft 461 kts 272°
2026-05-07 19:00 43.68536 41.27500 35256 ft 462 kts 272°
2026-05-07 19:00 43.68561 41.23053 35021 ft 463 kts 272°
2026-05-07 19:00 43.68584 41.18601 34479 ft 466 kts 272°
2026-05-07 19:01 43.68605 41.14086 33452 ft 472 kts 272°
2026-05-07 19:01 43.68621 41.09626 32967 ft 465 kts 272°
2026-05-07 19:01 43.68632 41.05168 32325 ft 463 kts 272°
2026-05-07 19:01 43.68644 41.00724 31720 ft 460 kts 272°
2026-05-07 19:02 43.68654 40.96321 31109 ft 457 kts 272°
2026-05-07 19:02 43.68663 40.91936 30524 ft 455 kts 272°
2026-05-07 19:02 43.68673 40.87578 29875 ft 453 kts 272°
2026-05-07 19:02 43.68687 40.83251 29312 ft 447 kts 272°
2026-05-07 19:03 43.68707 40.78984 28756 ft 443 kts 272°
2026-05-07 19:03 43.68729 40.74745 28198 ft 439 kts 272°
2026-05-07 19:03 43.68751 40.70545 27658 ft 435 kts 272°
2026-05-07 19:03 43.68770 40.66387 27120 ft 431 kts 272°
2026-05-07 19:04 43.68788 40.62259 26600 ft 427 kts 272°
2026-05-07 19:04 43.68803 40.58174 26087 ft 423 kts 272°
2026-05-07 19:04 43.68815 40.54128 25600 ft 419 kts 272°
2026-05-07 19:04 43.68825 40.50124 25104 ft 416 kts 272°
2026-05-07 19:05 43.68830 40.46188 24638 ft 412 kts 271°
2026-05-07 19:05 43.68831 40.42246 24161 ft 408 kts 271°
2026-05-07 19:05 43.68832 40.38332 23647 ft 406 kts 271°
2026-05-07 19:05 43.68835 40.34439 23134 ft 402 kts 271°
2026-05-07 19:06 43.68838 40.30601 22654 ft 397 kts 271°
2026-05-07 19:06 43.68836 40.23039 21688 ft 390 kts 271°
2026-05-07 19:06 43.68825 40.19302 21202 ft 387 kts 269°
2026-05-07 19:07 43.68376 40.15650 20712 ft 387 kts 253°
2026-05-07 19:07 43.67234 40.12312 20286 ft 384 kts 236°
2026-05-07 19:07 43.65511 40.09542 20174 ft 379 kts 221°
2026-05-07 19:07 43.63361 40.07461 20089 ft 377 kts 206°
2026-05-07 19:08 43.61018 40.05946 19923 ft 377 kts 204°
2026-05-07 19:08 43.58641 40.04453 19678 ft 375 kts 204°
2026-05-07 19:08 43.56268 40.02970 19434 ft 374 kts 203°
2026-05-07 19:08 43.53896 40.01489 19190 ft 372 kts 204°
2026-05-07 19:09 43.51542 40.00018 18967 ft 371 kts 204°
2026-05-07 19:09 43.49193 39.98551 18628 ft 369 kts 204°
2026-05-07 19:09 43.46854 39.97090 18053 ft 370 kts 204°
2026-05-07 19:09 43.44469 39.95764 17585 ft 368 kts 197°
2026-05-07 19:10 43.42081 39.94683 17194 ft 363 kts 197°
2026-05-07 19:10 43.39694 39.93593 16798 ft 360 kts 197°
2026-05-07 19:10 43.37332 39.92511 16405 ft 356 kts 198°
2026-05-07 19:10 43.34980 39.91429 16013 ft 354 kts 198°
2026-05-07 19:11 43.32656 39.90365 15635 ft 351 kts 198°
2026-05-07 19:11 43.30344 39.89317 15247 ft 348 kts 198°
2026-05-07 19:11 43.28050 39.88282 14867 ft 346 kts 198°
2026-05-07 19:11 43.25770 39.87249 14489 ft 344 kts 198°
2026-05-07 19:12 43.23509 39.86225 14113 ft 341 kts 198°
2026-05-07 19:12 43.21256 39.85205 13716 ft 339 kts 198°
2026-05-07 19:12 43.19044 39.84200 13340 ft 336 kts 198°
2026-05-07 19:12 43.16829 39.83193 12972 ft 334 kts 198°
2026-05-07 19:13 43.14627 39.82199 12608 ft 331 kts 198°
2026-05-07 19:13 43.12446 39.81219 12245 ft 329 kts 198°
2026-05-07 19:13 43.10268 39.80239 11883 ft 327 kts 198°
2026-05-07 19:13 43.08145 39.79153 11523 ft 324 kts 208°
2026-05-07 19:14 43.06431 39.77202 11168 ft 322 kts 232°
2026-05-07 19:14 43.05434 39.74531 10732 ft 321 kts 255°
2026-05-07 19:14 43.05321 39.71518 10449 ft 313 kts 280°
2026-05-07 19:14 43.05886 39.68713 10297 ft 302 kts 288°
2026-05-07 19:15 43.06508 39.65990 9988 ft 298 kts 288°
2026-05-07 19:15 43.07124 39.63290 9595 ft 296 kts 288°
2026-05-07 19:15 43.07734 39.60616 9192 ft 294 kts 288°
2026-05-07 19:15 43.08344 39.57956 8798 ft 292 kts 288°
2026-05-07 19:16 43.08946 39.55345 8383 ft 291 kts 288°
2026-05-07 19:16 43.09551 39.52719 8021 ft 287 kts 288°
2026-05-07 19:16 43.10227 39.50166 7649 ft 284 kts 299°
2026-05-07 19:16 43.11445 39.48092 7324 ft 279 kts 321°
2026-05-07 19:17 43.13124 39.46825 6985 ft 275 kts 344°
2026-05-07 19:17 43.15003 39.46532 6642 ft 272 kts
2026-05-07 19:17 43.16844 39.47087 6283 ft 270 kts 23°
2026-05-07 19:17 43.18419 39.48397 5945 ft 268 kts 43°
2026-05-07 19:18 43.19572 39.50375 5678 ft 267 kts 62°
2026-05-07 19:18 43.20228 39.52745 5415 ft 266 kts 72°
2026-05-07 19:18 43.20790 39.55160 5147 ft 265 kts 72°
2026-05-07 19:18 43.21347 39.57570 4874 ft 264 kts 72°
2026-05-07 19:19 43.21901 39.59967 4600 ft 263 kts 72°
2026-05-07 19:19 43.22455 39.62356 4330 ft 262 kts 72°
2026-05-07 19:19 43.23007 39.64733 4066 ft 261 kts 72°
2026-05-07 19:19 43.23559 39.67109 3812 ft 261 kts 72°
2026-05-07 19:20 43.24108 39.69478 3551 ft 260 kts 72°
2026-05-07 19:20 43.24654 39.71844 3283 ft 259 kts 72°
2026-05-07 19:20 43.25193 39.74201 3034 ft 258 kts 73°
2026-05-07 19:20 43.25732 39.76551 2790 ft 257 kts 73°
2026-05-07 19:21 43.26253 39.78815 2659 ft 244 kts 73°
2026-05-07 19:21 43.26863 39.80916 2562 ft 231 kts 60°
2026-05-07 19:21 43.27843 39.82572 2467 ft 219 kts 42°
2026-05-07 19:21 43.29077 39.83704 2370 ft 209 kts 29°
2026-05-07 19:22 43.30323 39.84633 2281 ft 199 kts 29°
2026-05-07 19:22 43.31493 39.85508 2218 ft 185 kts 29°
2026-05-07 19:22 43.32588 39.86327 2108 ft 173 kts 29°
2026-05-07 19:22 43.33272 39.86839 2056 ft 164 kts 29°
2026-05-07 19:23 43.34240 39.87563 1971 ft 154 kts 29°
2026-05-07 19:23 43.35467 39.88482 1762 ft 150 kts 30°
2026-05-07 19:23 43.36374 39.89162 1579 ft 148 kts 29°
2026-05-07 19:23 43.36981 39.89616 1454 ft 147 kts 29°
2026-05-07 19:24 43.37879 39.90289 1284 ft 147 kts 29°
2026-05-07 19:24 43.38761 39.90958 1124 ft 147 kts 28°
2026-05-07 19:24 43.39655 39.91631 911 ft 146 kts 28°
2026-05-07 19:24 43.40550 39.92304 713 ft 146 kts 28°
2026-05-07 19:25 43.41438 39.92964 518 ft 144 kts 28°
2026-05-07 19:25 43.42314 39.93619 336 ft 143 kts 29°
2026-05-07 19:25 43.43186 39.94274 165 ft 142 kts 29°
2026-05-07 19:25 43.44026 39.94912 90 ft 125 kts 29°
2026-05-07 19:26 43.44843 39.95555 548 ft 141 kts 34°
2026-05-07 19:26 43.45437 39.96595 1312 ft 149 kts 72°
2026-05-07 19:26 43.45437 39.98054 1825 ft 160 kts 112°
2026-05-07 19:26 43.44716 39.99282 2229 ft 178 kts 147°
2026-05-07 19:27 43.43470 39.99700 2520 ft 203 kts 189°
2026-05-07 19:27 43.42094 39.99022 3107 ft 215 kts 202°
2026-05-07 19:27 43.40698 39.98207 3780 ft 221 kts 202°
2026-05-07 19:27 43.39273 39.97383 3959 ft 222 kts 202°
2026-05-07 19:28 43.37850 39.96567 4005 ft 222 kts 202°
2026-05-07 19:28 43.36426 39.95755 4008 ft 221 kts 202°
2026-05-07 19:28 43.35005 39.94945 4010 ft 221 kts 202°
2026-05-07 19:28 43.33583 39.94137 4010 ft 221 kts 202°
2026-05-07 19:29 43.32164 39.93330 4010 ft 221 kts 202°
2026-05-07 19:29 43.30744 39.92524 4009 ft 221 kts 201°
2026-05-07 19:29 43.29325 39.91721 4010 ft 221 kts 201°
2026-05-07 19:29 43.27904 39.90915 4010 ft 221 kts 201°
2026-05-07 19:30 43.26481 39.90106 4010 ft 221 kts 202°
2026-05-07 19:30 43.25064 39.89300 4010 ft 221 kts 202°
2026-05-07 19:30 43.23640 39.88493 4011 ft 221 kts 201°
2026-05-07 19:30 43.22220 39.87692 4011 ft 221 kts 201°
2026-05-07 19:31 43.20798 39.86890 4012 ft 221 kts 202°
2026-05-07 19:31 43.19376 39.86085 3931 ft 220 kts 201°
2026-05-07 19:31 43.17969 39.85287 3609 ft 219 kts 202°
2026-05-07 19:31 43.16655 39.84262 3282 ft 218 kts 223°
2026-05-07 19:32 43.15829 39.82552 2961 ft 217 kts 252°
2026-05-07 19:32 43.15725 39.80507 2622 ft 218 kts 282°
2026-05-07 19:32 43.16353 39.78674 2292 ft 217 kts 311°
2026-05-07 19:32 43.17517 39.77408 2039 ft 213 kts 336°
2026-05-07 19:33 43.18947 39.76927 2011 ft 214 kts
2026-05-07 19:33 43.20405 39.77274 2008 ft 213 kts 24°
2026-05-07 19:33 43.21722 39.78212 2008 ft 214 kts 30°
2026-05-07 19:33 43.23030 39.79192 2009 ft 214 kts 30°
2026-05-07 19:34 43.24339 39.80168 2014 ft 214 kts 29°
2026-05-07 19:34 43.25654 39.81149 2009 ft 214 kts 29°
2026-05-07 19:34 43.26962 39.82125 2009 ft 214 kts 29°
2026-05-07 19:34 43.28271 39.83102 2009 ft 214 kts 29°
2026-05-07 19:35 43.29572 39.84074 2010 ft 214 kts 29°
2026-05-07 19:35 43.30880 39.85051 2010 ft 214 kts 29°
2026-05-07 19:35 43.32188 39.86029 2010 ft 214 kts 29°
2026-05-07 19:35 43.33495 39.87007 2010 ft 212 kts 29°
2026-05-07 19:36 43.34756 39.87950 1903 ft 201 kts 29°
2026-05-07 19:36 43.35963 39.88853 1667 ft 192 kts 29°
2026-05-07 19:36 43.37088 39.89696 1425 ft 177 kts 29°
2026-05-07 19:36 43.38120 39.90469 1202 ft 161 kts 29°
2026-05-07 19:37 43.39072 39.91185 971 ft 151 kts 28°
2026-05-07 19:37 43.39980 39.91869 801 ft 146 kts 28°
2026-05-07 19:37 43.40856 39.92529 651 ft 145 kts 28°
2026-05-07 19:37 43.41730 39.93194 488 ft 143 kts 29°
2026-05-07 19:38 43.42604 39.93847 283 ft 142 kts 28°
2026-05-07 19:38 43.43465 39.94493 101 ft 140 kts 29°
2026-05-07 19:38 43.44254 39.95081 78 ft 108 kts 26°
2026-05-07 19:38 43.44660 39.95383 85 ft 36 kts 27°
2026-05-07 19:39 43.44868 39.95542 89 ft 32 kts 29°
2026-05-07 19:39 43.44991 39.95563 91 ft 15 kts 331°
2026-05-07 19:39 43.45062 39.95488 93 ft 11 kts 285°
2026-05-07 19:39 43.45042 39.95414 90 ft 8 kts 244°
2026-05-07 19:40 43.45016 39.95342 89 ft 9 kts 244°
2026-05-07 19:40 43.44987 39.95256 88 ft 11 kts 245°
2026-05-07 19:40 43.44954 39.95158 85 ft 12 kts 245°
2026-05-07 19:40 43.44914 39.95050 81 ft 13 kts 244°
2026-05-07 19:41 43.44873 39.94933 74 ft 14 kts 245°
2026-05-07 19:41 43.44831 39.94809 72 ft 14 kts 245°
2026-05-07 19:41 43.44791 39.94690 69 ft 13 kts 245°
2026-05-07 19:41 43.44756 39.94587 74 ft 11 kts 245°
2026-05-07 19:42 43.44724 39.94494 73 ft 10 kts 245°
2026-05-07 19:42 43.44695 39.94409 72 ft 9 kts 245°
2026-05-07 19:42 43.44721 39.94357 71 ft 7 kts 335°
2026-05-07 19:42 43.44761 39.94333 69 ft 6 kts 335°
2026-05-07 19:43 43.44787 39.94315 72 ft 2 kts 334°
2026-05-07 19:43 43.44791 39.94312 68 ft 0 kts 334°